Theta_e
295 294 294 294 293 293 294 294 294 294 296 296 297 296 296 295 296 297 297 298 298 299 299 299 301 302 304 305 308 308 310 319 322 330 328 329 329 329 330 329 331 331 332 332 331 331 334 326 323 325 328 325 324 324
294 294 294 293 293 293 294 294 296 296 295 295 296 296 296 295 296 297 299 298 296 297 298 298 297 299 301 301 302 303 307 309 315 324 326 329 328 328 329 333 327 334 331 332 332 331 331 325 326 325 325 324 325 325
294 293 293 293 295 295 295 296 296 295 295 296 295 297 296 296 296 297 297 298 297 297 298 299 302 302 302 301 300 301 304 306 317 313 319 325 328 325 327 328 326 327 325 331 332 331 329 326 326 324 323 324 324 325
293 293 295 295 295 296 296 296 296 295 294 294 296 296 296 296 295 297 299 299 298 297 298 300 299 300 301 302 303 302 303 307 309 309 315 321 326 322 326 324 323 324 324 327 328 328 327 326 325 324 323 324 323 323
294 295 295 295 295 295 294 293 294 295 295 294 294 295 296 296 297 296 299 299 298 297 299 298 298 302 302 302 299 301 304 304 304 307 309 321 322 324 322 322 324 323 326 328 328 325 326 324 326 325 323 323 322 321
295 295 295 295 296 294 293 293 293 294 295 295 296 295 297 296 296 298 298 298 296 297 297 301 300 301 302 303 304 303 303 304 305 306 309 308 317 322 325 324 324 323 326 328 325 327 328 328 327 324 323 323 322 321
293 293 293 293 293 293 293 293 293 294 295 295 295 295 296 296 295 298 299 298 296 297 297 300 303 303 304 306 306 305 304 305 306 307 308 313 318 317 323 326 323 321 322 324 324 325 326 326 326 323 323 322 321 321
293 293 293 294 294 294 294 294 295 295 296 295 295 296 296 296 295 296 298 297 295 297 297 301 303 303 305 307 308 306 305 305 305 306 308 310 316 317 320 322 322 322 322 322 323 325 326 326 324 323 322 320 321 320
294 294 295 295 296 296 296 296 296 296 296 296 296 296 297 296 297 297 296 296 296 297 299 300 302 304 303 305 306 309 306 308 306 308 309 311 313 318 319 319 321 321 322 323 322 324 323 324 323 322 321 321 321 319
295 295 295 295 296 295 295 296 296 296 295 296 296 296 298 297 296 295 297 297 297 297 298 299 301 304 302 305 305 307 310 309 311 310 309 311 312 312 315 316 316 319 318 321 322 323 323 324 323 322 322 322 321 320
295 296 295 295 295 295 296 296 296 295 296 297 296 297 298 295 297 299 298 298 298 297 298 298 299 301 300 303 304 305 310 313 311 313 312 312 312 311 311 314 314 315 316 316 319 322 323 323 322 322 322 321 321 319
295 295 295 295 296 296 296 295 296 296 297 297 296 296 296 297 298 299 300 300 299 300 301 302 302 301 301 302 303 304 310 313 314 315 315 314 314 313 312 311 311 312 313 315 315 316 319 322 323 323 322 321 320 318
295 295 295 296 296 296 296 295 296 296 296 296 297 297 297 297 298 299 300 302 302 301 302 303 304 302 303 302 304 307 309 312 313 316 315 314 316 315 316 316 316 316 315 313 315 315 316 321 321 321 321 320 319 318
296 295 295 295 296 296 296 296 296 296 296 297 297 297 298 299 299 301 302 302 301 302 302 302 302 300 304 305 305 307 309 312 313 314 315 317 316 316 316 316 317 318 317 315 314 314 315 320 320 320 320 319 318 317
295 295 295 295 296 297 297 296 296 296 296 297 297 298 298 298 300 300 300 300 300 299 300 302 304 302 306 305 306 307 309 310 312 310 312 316 317 316 316 315 315 315 317 318 315 314 315 319 320 319 319 318 318 316
295 296 296 296 296 297 297 296 296 295 296 297 297 298 299 300 301 301 300 300 301 302 303 303 306 306 306 307 306 306 306 307 310 313 314 315 316 316 316 316 315 314 314 317 319 315 316 319 319 319 318 318 317 317
295 296 296 295 296 295 296 295 296 296 296 297 298 298 298 299 299 299 299 300 299 301 304 302 304 306 307 307 306 305 306 308 311 312 313 314 315 315 315 315 315 315 314 315 318 319 317 317 318 318 318 318 317 316
295 296 295 295 295 295 296 296 296 296 297 297 298 298 298 298 298 298 299 301 302 302 302 306 304 306 308 310 309 309 309 309 310 310 311 312 313 314 314 315 315 316 316 316 316 318 317 318 318 318 319 318 317 315
295 295 294 294 295 296 297 297 297 298 298 298 298 298 298 298 299 299 300 301 301 302 302 303 306 306 307 306 308 309 309 309 309 310 311 312 312 313 313 314 315 316 316 316 317 318 318 318 317 319 318 317 316 315
294 295 294 294 294 297 296 296 296 297 298 299 299 299 300 300 301 301 302 303 303 303 303 303 306 306 305 304 306 306 306 307 308 309 310 310 311 312 313 314 314 315 315 316 317 317 317 317 318 318 317 317 316 315
294 295 294 294 296 296 297 296 297 297 298 299 299 300 301 302 303 304 304 304 304 305 306 306 307 308 307 307 308 309 309 308 309 309 309 310 310 312 312 313 314 314 315 315 316 317 317 317 317 317 316 316 316 314
296 296 296 295 296 297 297 297 297 298 298 299 300 301 302 304 304 305 305 305 306 306 305 305 305 307 308 308 307 307 306 308 309 309 309 310 309 311 312 312 313 313 314 315 316 315 317 316 316 316 316 315 314 313
297 296 296 295 296 297 297 297 298 299 300 301 302 303 304 304 305 304 305 306 305 305 307 307 307 307 307 307 307 307 308 309 310 310 310 310 311 312 312 313 312 311 312 315 315 315 316 315 315 315 313 313 312 309
297 296 296 296 296 298 298 299 299 299 300 302 303 304 305 303 302 303 307 303 305 307 308 307 307 307 307 307 307 307 308 308 308 309 310 311 312 312 312 311 311 312 312 313 314 314 313 314 312 312 312 311 310 309
297 297 297 298 297 297 300 300 300 301 303 303 303 304 302 300 306 307 305 307 307 307 306 306 305 306 305 306 305 305 306 307 308 309 309 311 311 311 310 310 312 313 313 313 313 313 311 311 311 311 311 310 310 310
298 299 298 300 300 300 302 304 304 304 304 304 304 303 303 305 307 308 307 307 307 307 306 305 305 304 303 304 305 306 308 309 308 308 309 310 311 310 310 311 312 312 312 311 310 310 310 310 310 309 310 309 309 309
301 301 301 301 301 302 303 303 303 304 306 306 306 307 307 307 308 306 306 306 305 306 306 306 306 305 305 307 305 305 307 306 307 307 308 309 309 309 311 311 311 311 311 311 310 310 309 309 308 309 309 309 309 310
300 300 302 302 303 303 304 304 304 305 306 305 306 307 307 307 307 304 304 304 304 305 306 307 307 306 309 307 307 308 308 308 308 308 308 309 310 310 309 309 310 310 311 310 310 310 309 309 309 309 309 309 309 308
300 301 302 303 303 303 303 304 304 304 304 305 306 307 305 303 303 303 303 304 304 304 306 306 307 308 309 309 309 309 309 309 308 307 307 307 307 307 308 308 308 309 309 310 310 310 309 307 307 307 309 309 307 308
301 301 302 302 303 304 303 303 304 304 304 305 305 305 304 303 303 303 303 303 303 303 305 307 308 308 308 310 309 309 309 309 309 308 307 307 307 307 307 307 307 307 307 308 308 309 308 306 305 305 305 306 306 306
301 302 302 302 303 303 302 303 304 304 304 304 305 306 306 305 305 302 301 301 301 305 308 309 308 308 308 308 308 309 309 308 308 307 307 307 307 307 307 307 306 306 306 306 307 308 308 307 306 306 305 305 306 306
301 302 302 302 303 302 302 302 303 304 304 305 306 306 306 305 304 302 301 301 303 305 308 308 307 307 307 307 307 307 308 308 308 308 308 308 308 308 307 307 307 307 307 307 306 307 307 306 307 306 306 305 305 306
300 301 302 302 303 302 302 302 303 304 305 306 306 307 306 304 304 301 301 301 301 303 306 307 306 307 306 306 306 306 306 306 306 306 306 307 307 308 308 306 305 306 306 307 306 307 306 304 305 304 306 305 306 306
Wind_Speed
14 15 16 17 18 18 16 15 14 14 14 12 14 12 11 11 10 7 7 6 4 9 22 20 16 16 14 12 7 12 10 5 6 5 3 2 4 6 6 10 18 12 12 9 9 12 6 16 12 8 7 9 11 11
16 17 18 19 19 18 17 16 15 15 14 12 12 12 10 9 7 8 6 7 11 11 16 22 26 24 21 18 16 6 10 8 4 4 3 4 2 3 3 6 2 6 4 5 8 5 9 22 6 10 9 12 11 12
18 19 19 17 17 17 17 16 17 16 15 13 11 12 11 10 7 8 10 11 10 13 24 14 6 6 9 12 16 11 10 6 2 3 5 3 5 5 2 1 3 3 2 3 5 7 11 18 8 11 10 9 10 11
18 18 16 16 16 17 18 18 18 16 15 14 13 11 12 10 9 9 10 10 9 8 7 9 7 9 7 9 12 20 19 6 6 7 8 4 4 3 10 7 3 5 2 3 3 4 7 10 16 13 11 12 14 14
17 18 18 19 18 20 19 19 18 17 15 14 13 13 11 11 12 12 12 13 12 10 8 19 26 10 4 9 22 22 19 16 15 5 3 4 4 4 4 3 10 12 7 10 6 8 11 10 18 17 18 18 17 17
18 19 20 19 20 22 21 21 20 18 17 15 13 12 12 12 13 7 6 5 1 6 4 5 10 12 11 9 11 15 20 16 13 9 7 5 6 5 4 7 6 23 11 3 2 2 5 3 16 19 20 19 18 16
18 19 20 21 22 22 22 19 17 15 13 13 14 13 14 11 12 9 5 1 5 4 4 7 6 2 7 6 7 10 14 14 12 13 13 12 6 6 5 7 8 5 6 4 4 4 7 12 11 19 21 20 19 16
20 21 21 20 21 20 19 17 16 16 15 14 13 13 13 10 13 15 13 17 15 6 5 3 5 8 1 3 7 9 10 14 11 12 9 12 11 7 5 12 9 4 1 3 7 7 2 10 18 20 21 22 21 19
17 19 19 20 20 20 19 19 18 14 13 13 12 12 10 8 7 8 10 6 10 10 3 5 4 3 4 1 4 7 11 6 8 7 11 8 10 10 7 13 15 9 4 0 7 8 7 14 18 21 22 21 20 20
16 19 20 18 17 18 18 16 16 14 12 11 12 6 6 6 12 7 5 7 8 6 9 8 14 8 7 5 2 4 8 7 7 10 10 9 13 23 11 12 14 7 3 4 6 10 9 13 17 19 21 20 19 19
16 18 17 17 18 19 19 16 13 10 12 15 9 7 4 7 6 5 3 6 8 4 8 11 19 13 13 7 3 6 2 4 5 7 9 6 7 18 22 19 15 14 9 6 6 5 9 8 14 17 18 18 18 20
14 17 15 15 17 14 10 9 10 18 13 11 7 5 6 4 5 4 4 5 5 4 8 9 7 9 8 7 8 5 3 3 6 8 5 5 5 8 22 27 25 19 15 15 13 12 10 7 7 13 16 18 19 19
17 17 14 14 14 8 4 3 12 15 14 12 4 4 3 4 5 5 7 4 4 6 4 5 3 3 7 9 5 4 4 5 4 4 3 1 15 10 8 9 11 11 12 18 17 14 11 9 9 14 17 18 20 21
15 10 9 12 8 6 4 3 8 15 6 2 4 3 4 5 5 4 5 7 10 10 15 13 3 4 6 7 4 5 5 3 2 3 4 5 8 8 7 4 3 5 5 8 14 16 14 11 12 14 16 20 23 23
9 6 6 10 2 3 5 7 11 13 3 3 3 4 7 9 4 3 7 8 10 13 13 7 6 5 4 4 4 4 4 5 5 7 5 9 8 6 5 3 2 2 1 3 8 13 16 14 14 16 18 21 21 22
8 5 7 7 7 6 12 9 15 7 1 3 4 5 8 7 8 7 8 10 5 9 8 5 3 3 5 4 6 7 5 4 3 3 5 5 4 2 0 1 2 2 3 1 3 10 15 16 16 18 21 22 22 22
4 4 6 7 7 7 6 5 1 2 3 4 6 7 11 12 11 10 10 10 9 10 2 3 4 7 2 3 4 6 7 1 4 4 2 0 0 2 4 4 4 4 4 4 3 7 15 16 16 20 24 23 22 20
3 3 3 3 2 2 1 2 3 3 5 7 8 6 6 11 13 13 10 7 6 4 4 3 6 2 3 3 7 3 4 3 5 5 5 5 4 4 5 6 6 6 7 7 6 6 15 19 21 21 24 25 24 21
6 4 3 2 1 3 2 2 3 4 6 7 8 10 10 12 13 13 13 10 9 9 7 5 3 2 3 5 9 10 4 4 5 6 7 8 9 9 7 8 9 8 8 8 6 9 16 21 21 24 27 28 25 23
7 6 5 5 3 2 2 3 3 5 5 4 10 11 10 11 10 10 11 10 8 4 5 3 4 5 5 11 9 10 11 12 10 9 10 10 10 10 9 9 8 8 6 5 6 13 17 20 21 24 27 27 25 23
6 3 4 3 4 5 4 3 5 5 7 6 9 10 9 7 10 8 6 4 5 5 4 6 11 13 14 15 11 12 13 12 13 14 14 13 10 10 10 7 7 8 7 8 11 15 20 22 23 24 27 25 22 20
6 9 6 6 3 3 4 5 5 5 6 8 11 6 6 6 5 3 5 5 5 3 9 10 10 12 14 12 13 14 14 13 15 17 17 16 15 12 10 10 8 9 9 11 14 17 19 22 25 26 26 24 23 21
9 4 1 2 3 3 4 3 4 4 3 3 4 3 3 3 2 6 3 4 6 7 11 12 13 15 16 17 16 16 14 14 12 10 11 13 12 11 9 9 10 10 12 13 16 20 23 25 27 28 26 25 22 22
7 2 2 2 4 3 3 4 4 4 4 3 2 3 3 4 5 2 2 3 8 12 13 17 19 20 17 14 13 11 10 14 15 16 12 12 11 11 11 11 13 13 16 18 21 23 27 27 27 26 24 23 23 23
2 1 2 4 4 3 3 2 3 3 3 3 2 2 1 3 2 1 1 9 14 17 23 26 25 17 14 13 13 13 20 9 9 12 10 13 14 14 15 14 15 16 22 24 28 27 26 24 22 22 22 23 24 23
2 2 2 3 3 2 2 3 3 3 2 1 2 3 2 2 3 3 7 17 19 23 26 32 28 18 21 15 17 17 14 9 14 14 14 17 17 21 21 22 25 24 23 24 26 26 25 24 24 23 22 24 24 23
3 4 3 4 6 6 5 3 7 3 3 4 3 3 0 3 4 5 14 20 24 26 27 24 20 17 14 21 20 13 25 29 28 27 28 24 19 19 21 23 23 22 20 21 20 21 23 23 23 22 23 22 22 22
3 6 6 11 6 4 6 8 5 7 5 8 4 7 5 5 4 9 12 23 25 28 25 26 24 13 20 19 18 18 23 25 27 27 27 26 26 23 24 22 22 23 21 20 19 19 20 21 20 21 22 22 21 21
2 7 7 6 5 4 8 8 7 7 9 8 6 3 3 3 9 14 16 21 24 26 25 28 27 26 18 19 16 16 16 15 18 23 22 22 21 19 17 16 15 14 16 19 20 18 19 22 22 21 21 20 22 22
3 7 4 5 4 5 8 8 8 6 6 5 6 6 6 6 11 15 19 22 27 29 21 24 21 22 22 21 18 15 16 16 15 16 19 19 18 16 16 15 14 14 14 16 20 20 18 25 23 22 21 20 24 23
4 4 3 2 2 6 9 8 5 3 4 3 1 3 5 2 5 16 28 24 24 29 21 19 23 19 19 21 17 17 19 17 17 17 17 16 15 14 13 14 14 15 15 15 16 17 18 20 23 23 21 20 21 22
3 3 4 3 3 6 7 8 5 5 4 3 3 3 4 4 6 13 27 31 32 29 20 18 21 19 17 17 18 18 15 11 11 11 10 11 11 12 12 12 13 14 14 14 16 16 15 16 18 21 25 23 19 20
2 2 2 3 2 2 4 6 3 2 2 3 5 8 9 5 5 10 17 26 27 25 20 14 17 14 15 15 16 14 12 11 9 8 7 8 11 12 11 13 15 14 14 13 14 15 16 18 21 20 24 23 22 22
Wind_Direction
298 301 306 307 308 309 307 306 306 307 306 311 317 324 325 325 337 358 305 309 321 279 285 276 282 274 277 267 277 343 309 197 273 248 197 274 265 253 262 204 183 182 184 202 198 216 216 146 153 214 110 122 150 160
295 297 300 302 302 302 300 301 303 303 302 301 304 316 310 313 325 332 313 290 304 270 267 283 276 260 254 258 287 271 305 312 335 291 252 152 281 283 350 202 186 231 239 173 207 200 121 172 203 180 157 161 167 167
294 296 298 300 304 302 301 299 294 295 293 291 290 296 306 302 283 299 300 296 304 297 302 272 277 298 266 252 234 241 245 249 243 339 309 286 231 136 295 344 324 178 235 203 160 159 162 183 168 172 169 162 164 164
294 296 296 296 296 297 297 296 295 294 292 284 279 282 295 295 283 271 277 284 283 293 280 295 306 283 268 245 234 230 240 286 321 317 285 257 259 226 191 194 231 326 233 195 173 144 165 192 194 176 158 150 147 148
298 296 291 290 294 296 291 289 287 286 289 287 283 271 283 290 282 278 278 274 261 240 306 296 300 301 287 250 236 233 231 242 246 259 267 252 270 236 185 266 196 171 204 230 227 202 219 204 190 177 166 160 157 153
296 293 292 292 291 292 292 291 287 277 275 278 277 267 268 280 283 283 276 248 295 234 263 290 314 288 285 260 235 220 218 221 223 219 231 255 278 266 240 205 161 182 200 227 243 329 204 146 174 172 163 159 157 155
302 298 293 289 290 291 291 287 279 278 276 272 266 262 254 264 260 225 304 213 299 181 276 291 274 254 294 264 212 202 203 209 216 224 237 234 200 227 257 229 156 167 212 210 216 163 169 163 166 162 159 156 154 152
304 303 300 298 296 293 286 278 276 274 275 269 264 258 251 252 253 259 258 255 257 265 254 269 272 272 346 298 216 192 187 201 212 231 232 232 208 211 247 221 172 148 81 215 212 190 164 166 153 155 158 160 159 156
311 311 305 300 298 292 283 276 275 272 264 260 244 242 239 232 237 256 228 233 221 219 245 236 265 327 354 311 310 215 194 196 203 218 225 222 216 220 216 214 229 229 220 108 181 180 161 161 160 161 164 168 168 168
322 320 317 307 296 296 294 284 265 258 250 239 223 194 214 215 218 202 229 194 201 222 230 253 243 254 325 311 310 269 216 237 188 211 201 229 238 227 229 220 226 193 173 184 186 191 175 173 173 174 179 180 181 176
331 329 320 312 305 302 296 281 259 217 211 200 189 200 171 193 192 214 222 199 190 231 231 249 242 255 242 256 277 272 338 281 235 175 202 214 223 218 218 221 222 223 228 245 240 236 203 189 189 179 179 179 177 173
324 338 334 319 319 315 301 263 217 204 193 187 163 160 175 207 229 237 206 170 220 250 192 232 230 221 222 215 232 235 249 276 241 146 219 230 193 186 210 217 222 227 242 242 238 232 229 226 205 189 178 172 173 167
317 324 320 332 337 334 337 222 196 201 175 136 159 161 202 195 235 232 209 191 213 224 251 225 203 253 202 215 221 254 230 243 290 214 225 264 116 148 168 182 204 226 242 241 234 230 229 213 182 174 167 167 166 165
322 327 329 337 345 14 42 158 171 154 124 128 154 191 229 190 230 270 328 331 317 293 300 295 203 228 226 192 237 236 226 258 229 225 220 154 146 143 141 137 160 201 225 229 229 225 217 200 179 168 167 167 168 168
11 11 359 4 25 69 126 142 155 167 114 192 206 240 217 244 252 231 253 274 285 296 287 285 240 213 206 223 217 237 220 229 220 207 201 129 144 140 131 111 88 64 168 214 212 209 204 192 175 167 168 167 166 167
359 19 15 28 32 142 171 180 171 144 203 231 232 257 251 254 251 234 267 281 322 318 294 243 266 212 217 220 203 222 229 238 146 83 94 149 164 149 178 297 340 328 346 289 228 203 192 182 177 172 167 165 166 168
28 44 49 48 72 93 164 140 164 259 257 243 239 245 272 284 287 303 311 312 313 303 329 306 247 223 304 226 235 228 226 300 48 78 120 67 289 295 298 298 299 302 298 304 263 210 191 181 172 167 165 165 162 163
20 28 40 44 49 6 296 225 249 249 257 254 262 280 272 277 287 294 300 296 285 284 222 274 302 270 231 257 232 194 242 241 255 279 290 293 280 279 290 286 294 292 292 288 284 218 186 180 177 173 166 162 157 157
341 316 309 305 292 279 263 252 236 261 259 284 277 277 275 281 282 281 281 282 262 264 283 295 270 240 240 257 284 291 305 326 300 277 278 281 275 270 272 277 278 281 286 280 261 204 189 186 180 172 169 163 164 164
313 310 279 267 277 286 267 260 261 275 281 315 284 277 275 279 291 288 286 275 254 228 209 220 237 262 249 265 276 276 289 283 270 275 262 257 258 260 267 270 261 268 276 248 199 182 178 174 174 171 170 165 168 166
322 307 310 266 260 238 266 262 248 256 291 273 282 292 284 284 278 284 286 247 233 236 248 241 308 318 301 290 284 277 272 267 262 257 261 266 253 250 257 264 250 241 228 207 191 179 172 174 168 167 163 162 165 161
305 316 283 244 239 243 254 235 255 286 271 278 293 262 274 270 270 271 299 249 254 348 338 323 310 303 308 302 293 286 281 275 267 263 259 251 248 246 243 239 219 219 202 200 186 174 168 164 161 156 154 154 150 153
314 316 280 224 253 233 261 239 249 230 253 271 278 260 238 263 328 323 265 337 344 293 299 304 313 310 300 301 295 294 276 274 267 263 254 242 241 228 221 207 204 200 188 179 167 158 155 154 148 148 148 144 146 145
322 248 245 238 224 267 254 233 233 256 250 245 257 277 350 342 320 296 314 312 306 317 331 339 331 321 315 314 308 299 280 275 271 271 258 231 207 194 199 192 183 180 168 158 149 146 144 145 147 140 146 146 145 147
297 277 248 244 241 237 242 236 228 242 253 221 235 240 270 267 259 41 4 3 3 1 354 343 343 345 328 328 330 315 324 260 228 233 233 195 195 171 158 154 149 152 146 143 140 141 138 136 140 143 147 148 148 150
282 228 235 286 274 245 280 306 331 281 286 334 19 328 341 323 36 34 354 353 347 349 345 340 338 353 349 342 343 20 65 80 145 133 141 149 156 152 139 137 131 130 138 141 136 134 134 137 138 142 144 148 151 151
334 16 333 299 296 294 277 309 292 313 360 20 354 334 146 70 48 6 356 359 346 344 342 350 356 358 352 22 63 75 61 80 94 103 110 111 108 120 125 126 123 126 133 133 135 136 137 137 138 142 146 151 154 155
327 348 340 335 332 348 343 40 15 10 6 350 340 28 36 34 11 343 345 349 350 349 357 21 37 49 32 69 66 68 72 85 86 89 93 91 100 106 109 110 117 121 126 131 134 136 137 139 142 147 151 153 155 159
334 344 329 348 8 28 27 17 23 26 3 22 53 52 49 37 19 11 354 354 358 7 25 37 36 29 53 60 67 70 74 76 89 82 83 87 88 84 92 100 104 115 134 141 137 143 149 148 140 142 150 152 156 156
22 355 334 0 11 50 27 6 5 20 33 52 93 111 101 57 33 18 10 7 5 4 20 40 34 40 41 46 47 53 72 64 68 79 90 92 94 97 97 99 106 112 118 127 145 155 155 154 150 153 156 153 158 162
342 340 323 340 349 21 0 352 353 4 19 36 3 55 117 138 40 19 16 11 6 19 36 36 35 41 50 49 56 65 66 69 80 86 88 92 94 94 96 98 102 107 116 125 133 140 142 153 163 163 164 161 161 161
340 13 344 326 339 337 347 354 357 11 14 23 69 97 95 83 37 8 9 8 11 20 32 27 29 41 63 68 72 75 76 79 80 82 87 99 106 106 103 108 112 115 117 122 129 137 147 150 152 161 168 165 165 166
304 322 301 304 304 322 360 339 2 24 53 45 50 54 56 59 55 6 5 7 12 14 19 36 34 64 71 81 79 75 74 72 75 78 93 120 135 129 123 121 118 116 119 121 123 129 138 145 142 146 164 162 162 155